www.pogodaiklimat.ru
Время
и дата
17:54 30.12
18:54 30.12
19:24 30.12
19:54 30.12
20:43 30.12
20:54 30.12
21:54 30.12
22:54 30.12
23:54 30.12
00:54 31.12
01:54 31.12
02:54 31.12
03:31 31.12
03:46 31.12
03:54 31.12
04:03 31.12
04:54 31.12
05:54 31.12
06:37 31.12
06:46 31.12
06:54 31.12
07:08 31.12
07:50 31.12
07:54 31.12
08:45 31.12
08:54 31.12
09:11 31.12
09:20 31.12
09:29 31.12
09:40 31.12
09:54 31.12
10:03 31.12
10:28 31.12
10:37 31.12
10:54 31.12
11:21 31.12
11:54 31.12
12:22 31.12
12:54 31.12
13:41 31.12
13:54 31.12
14:54 31.12
15:36 31.12
15:47 31.12
15:54 31.12
16:18 31.12
16:43 31.12
16:54 31.12
Ветер
(напр.,м/с)
Видим. Явления Облачность Т
(С)
Тd
(С)
f
(%)
Тe
(С)
Тes
(С)
Комфортность P
(гПа)
Po
(гПа)
Тmin
(С)
Tmax
(С)
R
(мм)
R24
(мм)
S
(см)
ЮЗ 2 8 км дымка 10/10 180 м -4.4 -6.1 88 -11 -11 1008.3 958.7 -6.7 -4.4
ЮЗ 2 8 км дымка 10/10 150 м -4.4 -5.6 91 -12 -12 1008.7 959.4
Ю 2 6 км дымка 10/10 120 м -4.4 -5.6 91 -12 -12 959.4
Ю 3 6 км дымка 10/10 120 м -4.4 -5.0 96 -12 -12 1008.5 959.0
Ю 2 10 км дымка 10/10 180 м -3.9 -5.0 92 -11 -11 959.0
Ю 2 10 км дымка 10/10 150 м -3.9 -5.6 88 -11 -11 1008.4 959.0
Ю 2 10 км дымка 10/10 180 м -3.9 -5.0 92 -10 -10 1008.4 959.0
ЮЗ 3 11 км 10/10 180 м -3.9 -5.6 88 -12 -12 1008.4 959.4
Ю 2 11 км 10/10 180 м -3.9 -5.0 92 -11 -11 1008.5 959.4 -4.4 -3.9
ЮЗ 2 13 км 10/10 180 м -3.9 -5.0 92 -11 -11 1008.3 959.4
ЮЗ 2 11 км 10/10 150 м -3.3 -5.0 88 -10 -10 1008.6 959.7
ЮЗ 2 8 км дымка 10/10 120 м -3.9 -5.0 92 -10 -10 1008.5 959.7
Ю 2 4 км дымка 10/10 90 м -4.4 -5.0 96 -11 -11 959.4
Ю 1 2 км дымка 10/10 60 м -4.4 -5.0 96 -10 -10 959.0
Ю 2 2 км дымка 10/10 60 м -4.4 -5.0 96 -11 -11 1007.9 959.0
Ю 1 1 км дымка ?/? -4.4 -5.0 96 -10 -10 958.7
Ю 1 800 м переохлажденный туман ?/? -4.4 -5.0 96 -9 -9 1007.9 959.0
ЮВ 1 800 м переохлажденный туман ?/? -4.4 -5.0 96 -9 -9 1008.1 959.0 -4.4 -3.3
ЮВ 1 2 км дымка 10/10 60 м -4.4 -5.6 91 -10 -10 959.0
ЮВ 1 3 км дымка 10/10 60 м -4.4 -5.0 96 -9 -9 959.4
В 1 2 км дымка 10/10 60 м -4.4 -5.0 96 -9 -9 1008.1 959.0
ЮВ 1 1 км дымка ?/? -4.4 -5.0 96 -9 -9 959.4
ЮВ 1 400 м переохлажденный туман ?/? -4.0 -4.0 100 -8 -8 959.0
ЮВ 1 400 м переохлажденный туман ?/? -3.9 -4.4 96 -8 -8 1008.2 959.4
С 1 400 м слабый замерзающий дождь, переохлажденный туман ?/? -3.9 -4.4 96 -9 -9 960.3
С 1 400 м слабый замерзающий дождь, переохлажденный туман ?/? -3.3 -4.4 92 -8 -8 1009.1 960.3
СВ 1 400 м слабый замерзающий дождь, переохлажденный туман ?/? -3.3 -4.4 92 -9 -9 960.0
С 1 800 м слабый замерзающий дождь, переохлажденный туман ?/? -3.3 -4.4 92 -9 -9 959.7
СВ 2 800 м слабый замерзающий дождь, переохлажденный туман ?/? -3.3 -4.4 92 -10 -10 959.4
СВ 2 800 м неопределенные осадки, переохлажденный туман ?/? -3.3 -4.4 92 -10 -10 959.4
СВ 2 2 км неопределенные осадки, дымка 10/10 60 м -3.3 -4.4 92 -10 -10 1008.4 959.4
СВ 2 2 км неопределенные осадки, дымка 10/10 60 м -3.3 -4.4 92 -10 -10 959.7
С 2 4 км неопределенные осадки, дымка 10/10 60 м -3.3 -4.4 92 -10 -10 959.7
СВ 2 5 км неопределенные осадки, дымка 10/10 60 м -3.3 -4.4 92 -10 -10 959.7
СВ 2 6 км неопределенные осадки, дымка 10/10 120 м -3.3 -4.4 92 -10 -10 1008.8 960.0
С 1 11 км неопределенные осадки 10/10 180 м -3.3 -5.0 88 -9 -9 959.7
СВ 2 11 км неопределенные осадки 10/10 240 м -3.9 -5.0 92 -11 -11 1008.0 959.0 -4.4 -3.3
С 2 14 км 10/10 300 м -3.3 -5.6 84 -9 -9 959.4
С 2 13 км 10/10 300 м -3.9 -5.6 88 -11 -11 1008.2 959.4
С 4 8 км дымка 10/10 180 м -5.0 -6.7 88 -14 -14 959.4
С 4 6 км дымка 10/10 180 м -5.6 -6.7 92 -15 -15 1008.3 959.4
С 4 8 км дымка 10/10 180 м -6.1 -7.8 88 -16 -16 1008.9 960.0
С 4 11 км 8/8 300 м -7.2 -9.4 84 -17 -17 960.0
С 4 11 км 5/5 300 м -7.2 -9.4 84 -16 -16 960.3
С 4 11 км 2/2 300 м -7.8 -10.0 84 -17 -17 1010.2 961.0
С 3 13 км 8/8 390 м
[Ac]
-7.8 -10.0 84 -17 -17 961.6
С 4 14 км 8/5 390 м
[Ac]
-8.9 -11.1 84 -18 -18 961.9
С 3 14 км 8/0 2100 м
[Ac]
-8.9 -11.7 80 -18 -18 1011.4 961.9
Местоположение метеостанции Rochester International Airport: широта 43.9042 долгота -92.4917 высота над уровнем моря 401 м.
В архиве по умолчанию представлена погода в Рочестере за последние 1-2 суток. Обновление информации о фактической погоде в базе происходит ежечасно! Архивные данные за месяц целиком и за предыдущие месяцы Вы можете получить, выбрав интересующий диапазон дат из раскрывающегося списка и нажав кнопку "Ввод!".
Внимание! Архив погоды МЕТАР в базе сайта по станциям, не включенным в климатический монитор, хранится не более 60 дней. Нет смысла пытаться выбрать более раннюю дату.
*Определитесь, кто Вы:
Внимание! Время в таблицах - местное (без учета летнего времени). Для получения всемирного времени необходимо вычесть поправку, которая равна -6 ч.
Смотрите также архив погоды в соседних городах и на ближайших метеорологических станциях:
Партнеры нашего сайта:      
Пояснения к столбцам:
  • Ветер - указаны скорость ветра в м/с - средняя за 10 мин, порывы в срок и между сроками (в фигурных скобках) и направление, откуда дует ветер: С - северный,
  • СВ - северо-восточный, В - восточный, ЮВ - юго-восточный, Ю - южный, ЮЗ - юго-западный, З - западный, СЗ - северо-западный.
  • Видимость - горизонтальная дальность видимости в метрах или километрах. При видимости от 1 до 10 км при отсутствии осадков обычно наблюдается дымка, при ухудшении видимости до 1 км и менее - туман. В сухую погоду видимость может ухудшаться дымом, пылью или мглою.
  • Явления - указаны атмосферные явления, наблюдавшиеся в срок или в последний час перед сроком; фигурными скобками обозначены явления, наблюдавшиеся между сроками (за 1-3 часа до срока); квадратными скобками обозначены град или гололедные отложения с указанием их диаметра в мм.
  • Облачность - указаны через наклонную черту общая и нижняя облачность в баллах и высота нижней границы облаков в метрах; квадратными скобками обозначены формы облаков: Ci - перистые, Cs - перисто-слоистые, Cc - перисто-кучевые, Ac - высококучевые, As - высокослоистые, Sc - слоисто-кучевые, Ns - слоисто-дождевые, Cu - кучевые, Cb - кучево-дождевые. Подробнее классификацию облаков см. в Атласе облаков (PDF).
  • T - Температура воздуха - температура, измеренная на высоте 2 м над землей.
  • Td - Температура точки росы - температура, при понижении до которой содержащийся в воздухе водяной пар достигнет насыщения.
  • f - Относительная влажность воздуха - влажноcть воздуха, измеренная на высоте 2 м над землей.
  • Te - Эффективная температура - температура, которую ощущает одетый по сезону человек в тени. Характеристика душности погоды. При расчете учитывается влияние влажности воздуха и скорости ветра на теплоощущения человека.
  • Tes - Эффективная температура на солнце - температура, которую ощущает человек, с поправкой на солнечный нагрев. Характеристика знойности погоды. Зависит от высоты солнца над горизонтом, облачности и скорости ветра. Ночью, в пасмурную погоду, а также при ветре 12 м/с и более поправка равна нулю.
  • P - Атмосферное давление - приведенное к уровню моря атмосферное давление.
  • Po - Атмосферное давление - измеренное на уровне метеостанции атмосферное давление.
  • Tmin - Минимальная температура - минимум температуры воздуха на высоте 2 м над землей.
  • Tmax - Максимальная температура - максимум температуры воздуха на высоте 2 м над землей.
  • R - Количество осадков - Количество выпавших осадков за период времени, мм. При наведении курсора мыши на число - период времени, за который выпало указанное количество осадков.
  • R24 - Количество осадков - Количество выпавших осадков за 24 часа, мм.
  • S - Снежный покров - Высота снежного покрова, см. При наведении курсора мыши на число - состояние снежного покрова и степень покрытия местности в баллах.